カタログに戻る

COSMOS 1275 DEB

運用中PO
NORAD 13026·DEBRIS·🇷🇺 Russia

打ち上げ Jun 4, 1981 から Plesetsk Cosmodrome

Loading…

次のパス (今後24時間)

TLE

最新Source: Space-Track

元期: Sep 14, 2026, 07:09 UTC

1 13026U 81053EX  26257.29822760  .00017085  00000-0  16014-2 0  9992
2 13026  82.9085  99.8119 0002580 207.1401 152.9686 14.93929602308893

AllMySatでCOSMOS 1275 DEBをリアルタイム追跡

Download on the App Store